Location: New Mesquite
(33.1168°N, 96.4336°W)
Time: 14:09:00
(UTC+00:00)

Meteor 1-27 Rocket - Pass Details

Date: 11 July 2022
Orbit: 829 x 911 km, 81.3° (Epoch: 18 August)

Event Time Altitude Azimuth Distance (km) Brightness Sun altitude
Rises 08:28:25 0° 346° (NNW) 3,393 7.5 -28.1°
Reaches altitude 10° 08:30:52 10° 342° (NNW) 2,448 6.6 -27.9°
Enters shadow 08:35:24 49° 299° (WNW) 1,060 4.1 -27.4°
